Wind_Speed
5 5 5 6 7 8 7 7 6 7 7 7 8 9 7 6 7 7 9 10 11 12 13 15 15 15 17 21 26 25 28 35 35 31 31 25 24 19 19 26 23 20 27 27 29
3 3 4 4 6 5 4 3 3 4 3 4 4 5 4 4 5 7 8 10 12 12 14 14 16 17 18 20 23 25 34 31 28 28 34 28 31 30 27 20 24 22 25 26 28
3 2 2 3 3 5 3 0 2 2 3 2 4 3 3 3 5 6 8 8 9 10 11 13 14 15 18 18 24 29 36 28 24 19 24 32 32 34 31 30 26 21 24 27 27
3 2 3 4 5 5 3 3 2 2 4 2 4 3 2 2 1 4 6 8 10 11 11 13 14 15 18 21 24 30 35 37 37 34 33 28 34 34 34 33 29 26 25 30 28
4 4 5 5 5 5 4 3 3 3 2 2 2 3 1 0 3 4 5 7 9 11 13 12 14 16 17 20 24 31 36 40 42 40 40 42 42 42 40 35 27 29 24 30 30
4 5 5 5 5 5 4 3 3 2 1 1 0 3 2 2 4 6 8 9 11 13 16 16 15 17 19 19 21 29 35 41 43 43 44 44 42 41 40 41 39 35 28 30 32
5 6 5 5 4 3 4 3 2 1 2 2 3 3 3 6 6 7 9 10 13 15 16 19 19 17 19 21 20 25 33 34 35 31 35 37 49 50 43 42 40 33 40 32 31
6 6 5 5 4 3 3 3 2 1 2 2 1 1 3 8 9 9 9 11 15 18 21 23 21 18 18 21 24 28 29 24 15 16 4 17 55 37 37 45 47 43 42 32 35
6 6 5 5 4 3 3 3 1 1 1 2 0 1 4 8 8 9 13 17 20 22 22 22 19 17 17 18 21 22 21 21 23 16 18 16 35 26 20 32 45 43 48 44 39
7 6 6 5 4 4 3 3 2 2 2 2 1 1 4 6 10 15 18 19 22 23 23 22 21 17 16 14 11 18 24 25 26 26 28 30 44 35 33 23 26 41 44 52 42
8 7 7 6 5 5 5 5 3 4 3 2 1 1 5 9 11 16 18 20 23 24 26 20 14 17 15 14 19 24 28 30 32 27 25 29 38 40 34 25 33 32 37 48 55
9 8 8 7 6 5 5 5 4 5 3 2 1 5 7 11 11 16 20 22 22 25 22 16 14 12 13 16 21 21 24 32 31 26 19 25 33 27 31 31 18 23 34 34 41
11 9 9 8 7 6 7 6 5 4 3 3 4 5 8 13 12 20 22 23 23 22 17 13 12 12 16 18 21 20 23 28 29 26 21 25 31 17 17 21 16 24 28 34 38
11 11 10 10 8 8 7 6 4 4 4 5 4 3 7 12 12 18 20 20 19 17 13 8 13 13 18 22 23 30 19 26 24 15 16 9 5 4 2 9 20 26 28 31 31
11 12 11 11 11 9 8 6 5 6 1 6 6 4 5 7 10 14 17 17 14 13 13 9 9 18 25 28 24 28 18 13 14 15 16 19 10 6 3 6 7 19 25 27 27
12 12 12 12 12 11 9 7 6 5 4 8 7 5 4 8 10 13 15 15 12 9 11 8 11 19 22 20 12 12 14 13 9 8 7 19 12 11 9 10 13 4 9 21 26
14 13 13 13 13 12 10 9 7 5 6 8 8 6 3 4 6 10 13 18 20 11 14 8 7 18 24 21 6 10 8 4 2 3 5 5 7 13 10 17 20 22 17 9 18
16 15 15 14 14 13 12 12 8 6 10 9 9 7 3 2 3 8 8 14 16 18 8 13 6 17 24 22 20 9 7 3 5 3 7 3 4 10 12 16 27 23 22 20 14
19 18 17 15 15 15 15 13 6 9 11 9 8 7 5 1 1 4 8 11 13 16 11 10 4 10 14 20 22 11 11 11 7 4 6 3 11 18 14 13 24 27 25 25 20
22 20 19 18 18 18 18 15 11 10 8 9 9 7 6 3 1 2 5 5 9 11 10 6 6 5 10 12 20 19 16 5 5 4 4 7 9 11 25 21 18 22 27 26 22
25 23 22 21 21 21 22 17 16 13 11 10 10 8 7 4 2 2 2 2 8 10 8 6 4 3 4 10 24 22 20 11 6 6 4 3 4 15 17 22 20 17 15 21 21
29 26 24 24 24 27 25 20 16 13 16 13 10 10 8 5 3 3 2 2 7 11 7 10 3 8 7 1 12 13 17 16 5 6 7 4 6 18 13 22 23 22 17 6 11
31 29 27 26 28 29 22 22 19 16 16 14 12 12 10 6 4 5 3 3 5 9 6 7 4 5 1 1 4 14 13 10 6 4 9 3 8 13 10 17 21 24 23 16 10
33 32 35 30 32 27 27 21 20 19 18 17 12 13 11 9 7 5 4 2 7 8 5 8 3 1 1 5 8 9 9 7 5 3 6 8 12 14 13 15 18 20 23 23 26
39 37 37 29 36 30 25 17 26 21 20 20 19 17 12 9 10 9 7 5 6 4 2 6 1 3 4 4 1 5 6 6 3 4 3 6 9 11 13 16 16 17 16 15 14
46 43 38 36 20 32 29 30 20 25 21 22 20 13 16 13 9 6 7 6 4 5 6 3 1 2 2 3 6 7 5 6 8 9 9 6 6 5 6 6 13 14 15 15 17
49 46 38 35 34 27 33 31 23 19 21 18 14 16 15 9 11 9 7 6 8 9 5 4 2 2 3 2 11 4 7 7 6 4 2 1 3 8 10 13 16 19 21 21 21
Wind_Direction
305 302 303 298 296 287 283 280 274 266 259 249 242 240 233 230 235 243 243 248 249 252 253 256 255 248 237 242 245 244 250 253 256 260 263 259 268 260 252 247 236 225 217 215 214
320 335 318 296 286 283 275 272 266 261 252 233 239 242 228 235 243 251 252 256 261 261 259 256 256 250 244 236 242 243 250 257 265 265 262 261 260 260 249 236 240 233 217 222 214
357 15 332 311 311 294 286 274 301 306 294 290 252 249 244 260 250 274 270 280 283 277 272 270 266 262 258 254 242 243 251 259 255 255 254 258 257 257 256 236 236 233 226 226 226
310 338 311 304 305 288 284 293 246 302 308 307 313 258 223 242 206 306 305 302 307 308 302 293 283 273 262 255 254 251 253 253 253 246 248 248 255 254 253 248 243 240 222 223 230
305 306 297 297 295 287 272 254 253 228 256 327 321 354 20 86 359 343 341 337 329 321 313 311 302 294 280 267 259 257 255 254 256 256 248 248 249 252 243 249 246 243 225 221 226
294 283 278 277 273 273 263 239 238 225 233 248 69 63 55 337 2 19 4 351 344 339 330 328 327 316 300 293 277 265 262 261 259 258 257 255 249 254 234 254 248 246 234 219 225
280 278 272 266 263 255 252 237 237 190 83 69 59 57 57 38 37 28 14 359 348 346 341 341 339 332 317 309 293 282 274 264 271 278 274 266 256 245 247 248 252 251 249 227 223
264 267 266 261 249 238 239 233 240 67 79 99 102 36 46 30 25 22 15 360 357 359 352 351 344 336 325 312 302 299 297 299 277 254 299 251 253 253 261 257 249 246 248 239 225
256 260 256 249 240 227 220 212 204 65 93 81 198 293 25 12 355 12 10 12 5 1 356 351 345 340 327 315 310 309 305 307 308 314 263 255 266 255 247 251 247 249 241 245 225
246 248 254 239 233 226 214 203 191 119 132 111 100 75 14 346 2 15 11 10 4 1 0 356 353 -0 358 341 315 310 306 299 295 306 299 267 254 263 260 236 235 241 239 238 225
240 236 239 240 225 215 215 199 171 136 141 179 104 347 341 359 5 10 6 9 6 4 7 6 18 6 352 331 313 305 299 292 300 300 295 281 276 261 253 254 244 237 236 235 237
241 232 232 232 224 224 223 205 197 163 185 203 302 350 359 356 7 11 6 8 6 9 12 19 17 3 339 325 315 305 303 296 299 305 297 286 284 274 265 249 251 266 246 239 237
246 234 229 232 224 220 213 210 210 219 193 248 273 349 2 355 7 9 6 3 7 15 18 24 2 332 331 327 322 310 306 302 295 298 297 283 288 275 290 248 246 254 252 242 240
244 238 228 229 226 224 211 207 204 209 231 224 246 329 3 1 351 8 5 9 0 17 18 7 2 340 333 336 325 302 305 305 296 284 280 313 293 237 353 185 219 240 241 245 243
236 237 230 222 220 220 214 202 193 187 26 186 214 276 343 356 356 360 7 13 16 28 17 8 359 356 345 339 326 291 305 308 302 276 288 285 260 299 184 139 194 215 234 240 245
224 230 231 227 220 217 211 195 179 176 236 189 199 240 311 337 359 8 10 14 28 42 32 5 346 350 346 339 343 343 331 315 304 277 260 268 231 34 31 38 81 95 206 226 230
218 219 226 226 220 210 205 190 175 207 186 197 214 243 281 326 354 7 17 20 32 26 25 40 31 5 0 12 356 353 3 351 308 193 256 358 204 39 54 69 63 86 96 161 212
217 214 217 223 221 212 199 194 214 210 187 188 203 233 248 337 350 4 31 35 31 24 28 14 9 19 22 13 344 2 310 314 307 314 298 217 186 23 67 60 81 84 90 106 139
218 217 215 213 220 216 204 203 208 217 211 200 205 223 217 244 328 10 39 38 25 19 21 2 9 40 17 29 27 354 357 283 279 286 281 84 38 48 77 75 102 100 94 93 98
225 216 216 212 213 216 215 214 215 220 209 199 201 203 193 207 198 64 45 40 26 11 6 347 308 349 20 32 37 24 11 1 323 6 341 71 45 8 28 44 34 94 94 96 100
229 220 216 213 213 214 220 219 221 228 219 213 213 207 207 218 214 151 85 31 3 9 6 355 314 294 344 17 17 15 18 17 335 29 329 24 72 14 24 30 41 38 56 94 99
228 222 221 216 215 218 221 222 224 223 221 219 219 219 208 204 207 194 169 7 348 7 9 352 320 314 344 159 23 27 17 18 26 350 341 345 61 3 7 24 33 23 41 35 51
227 225 223 219 219 223 224 225 223 226 220 218 215 218 215 205 202 200 220 326 337 351 3 357 336 332 333 352 357 25 25 12 2 13 19 33 343 358 23 34 30 26 20 22 31
219 219 221 220 223 222 223 225 221 223 220 220 217 218 214 215 209 205 217 267 317 324 346 359 350 332 249 292 323 2 23 20 23 47 65 60 41 53 45 40 36 33 27 26 10
214 219 226 222 221 220 220 219 225 222 215 216 224 225 221 214 213 227 222 262 290 213 304 342 325 352 334 322 340 34 21 17 63 130 107 113 64 49 38 25 14 11 10 8 8
216 214 218 223 218 221 218 222 222 220 223 224 222 222 221 222 217 210 243 256 250 235 301 308 250 127 116 44 139 99 102 89 99 115 119 98 48 9 345 354 6 354 347 343 343
215 214 216 224 219 221 222 221 220 218 224 226 223 226 217 211 222 242 259 252 263 277 244 205 178 143 166 2 160 169 147 123 130 142 194 246 304 311 315 330 338 325 318 323 327
Height
3099 3100 3100 3101 3101 3102 3102 3102 3102 3102 3103 3104 3104 3105 3107 3108 3109 3111 3112 3113 3113 3116 3117 3118 3120 3122 3124 3126 3128 3129 3129 3123 3126 3130 3133 3138 3140 3141 3142 3142 3144 3148 3151 3152 3154
3098 3098 3099 3100 3101 3101 3101 3102 3101 3102 3102 3103 3104 3105 3106 3105 3106 3108 3109 3109 3110 3112 3113 3115 3116 3119 3119 3121 3123 3125 3121 3120 3124 3127 3128 3131 3132 3135 3137 3137 3139 3144 3147 3147 3149
3097 3098 3099 3100 3101 3101 3102 3101 3100 3100 3101 3102 3104 3104 3104 3103 3105 3106 3106 3106 3107 3108 3110 3111 3113 3114 3115 3117 3116 3117 3115 3116 3121 3120 3121 3123 3126 3127 3129 3131 3134 3139 3143 3144 3145
3099 3098 3099 3099 3100 3102 3101 3101 3101 3100 3100 3101 3101 3103 3103 3103 3106 3104 3104 3104 3104 3104 3106 3107 3108 3109 3110 3111 3112 3112 3111 3109 3111 3114 3115 3116 3118 3119 3121 3125 3130 3132 3135 3139 3141
3098 3098 3099 3099 3100 3101 3101 3101 3101 3101 3101 3101 3101 3101 3102 3103 3103 3103 3102 3102 3102 3102 3102 3102 3102 3103 3103 3105 3106 3104 3105 3103 3102 3104 3107 3108 3110 3112 3112 3118 3122 3124 3128 3131 3133
3096 3098 3098 3098 3099 3100 3101 3101 3101 3101 3101 3102 3101 3100 3101 3103 3102 3101 3101 3100 3100 3099 3097 3097 3098 3098 3097 3099 3099 3098 3097 3095 3095 3095 3098 3100 3103 3107 3108 3112 3114 3116 3119 3123 3125
3095 3097 3097 3097 3097 3098 3100 3100 3100 3100 3100 3100 3099 3100 3100 3102 3101 3100 3100 3098 3097 3095 3094 3093 3093 3094 3092 3091 3090 3088 3087 3087 3089 3090 3090 3094 3090 3093 3099 3102 3102 3108 3110 3117 3118
3094 3095 3095 3096 3096 3097 3098 3099 3099 3099 3099 3099 3099 3100 3100 3101 3100 3100 3099 3097 3094 3093 3090 3088 3087 3087 3087 3087 3084 3082 3082 3080 3083 3085 3087 3086 3069 3088 3085 3090 3094 3098 3102 3108 3112
3093 3093 3094 3095 3095 3095 3097 3097 3098 3098 3098 3099 3100 3100 3100 3100 3100 3099 3097 3094 3091 3090 3087 3086 3085 3085 3083 3082 3081 3079 3078 3078 3078 3080 3080 3081 3066 3074 3077 3080 3083 3088 3095 3098 3105
3091 3091 3092 3093 3094 3094 3095 3096 3097 3097 3098 3099 3099 3101 3101 3100 3098 3097 3094 3092 3089 3086 3085 3083 3080 3080 3081 3080 3081 3078 3077 3075 3074 3073 3072 3070 3059 3065 3068 3072 3073 3078 3084 3086 3093
3089 3090 3090 3091 3092 3093 3095 3095 3099 3099 3098 3099 3099 3098 3098 3098 3097 3096 3092 3090 3087 3084 3081 3079 3081 3080 3081 3080 3079 3076 3073 3069 3067 3068 3066 3061 3055 3059 3063 3065 3067 3070 3073 3076 3081
3088 3088 3089 3089 3090 3092 3093 3093 3095 3097 3097 3097 3097 3097 3097 3095 3095 3094 3091 3089 3085 3082 3081 3081 3081 3080 3079 3078 3075 3071 3069 3062 3061 3062 3061 3056 3049 3052 3056 3059 3064 3066 3066 3068 3072
3085 3086 3086 3087 3088 3090 3092 3093 3093 3094 3095 3096 3096 3097 3096 3095 3092 3091 3089 3085 3083 3082 3080 3079 3081 3079 3077 3074 3070 3069 3066 3060 3058 3057 3058 3054 3045 3047 3048 3049 3060 3058 3057 3059 3061
3082 3083 3084 3085 3088 3088 3090 3090 3091 3092 3095 3097 3096 3095 3095 3093 3093 3090 3088 3087 3082 3082 3079 3079 3079 3077 3075 3073 3069 3060 3062 3058 3054 3057 3055 3053 3046 3044 3043 3044 3048 3048 3050 3052 3055
3077 3080 3082 3083 3084 3086 3089 3089 3089 3092 3095 3095 3094 3094 3094 3095 3094 3090 3088 3086 3083 3081 3081 3081 3078 3075 3072 3070 3065 3058 3057 3054 3053 3054 3055 3050 3050 3044 3039 3039 3042 3041 3044 3046 3050
3073 3076 3078 3081 3082 3084 3085 3087 3089 3093 3090 3091 3091 3092 3093 3092 3091 3089 3087 3087 3084 3082 3080 3078 3077 3076 3071 3067 3063 3058 3055 3054 3053 3055 3053 3044 3045 3043 3039 3039 3038 3039 3039 3041 3043
3068 3070 3074 3077 3080 3081 3083 3086 3089 3087 3089 3090 3089 3090 3091 3090 3089 3089 3087 3084 3083 3082 3080 3079 3078 3076 3072 3065 3062 3060 3057 3055 3053 3052 3045 3042 3045 3045 3042 3040 3039 3036 3038 3038 3040
3064 3066 3069 3073 3076 3078 3081 3084 3084 3082 3083 3085 3086 3088 3089 3089 3089 3088 3087 3085 3084 3083 3082 3080 3079 3076 3074 3070 3065 3061 3060 3059 3053 3050 3042 3042 3043 3050 3046 3044 3039 3039 3038 3038 3036
3060 3063 3065 3068 3072 3075 3078 3079 3077 3078 3080 3082 3084 3085 3087 3087 3088 3087 3086 3085 3085 3084 3084 3080 3079 3078 3076 3072 3068 3063 3061 3058 3056 3051 3048 3045 3047 3048 3048 3046 3037 3036 3038 3037 3039
3057 3058 3061 3064 3067 3070 3074 3073 3074 3075 3077 3079 3081 3083 3084 3085 3086 3085 3085 3086 3085 3084 3082 3081 3079 3077 3076 3074 3071 3067 3064 3060 3056 3054 3047 3052 3054 3055 3049 3047 3045 3040 3039 3039 3040
3054 3055 3057 3059 3062 3065 3066 3069 3070 3072 3075 3077 3078 3079 3081 3082 3083 3083 3085 3085 3084 3083 3080 3079 3079 3078 3076 3074 3071 3067 3063 3061 3060 3060 3055 3051 3061 3058 3055 3052 3048 3046 3045 3040 3041
3048 3051 3053 3055 3059 3058 3060 3064 3067 3068 3070 3073 3075 3076 3078 3080 3080 3081 3082 3083 3082 3081 3080 3079 3077 3075 3075 3074 3074 3071 3067 3064 3064 3065 3061 3060 3064 3060 3057 3054 3050 3048 3047 3046 3044
3041 3045 3046 3049 3050 3053 3057 3060 3062 3065 3066 3069 3071 3072 3075 3077 3079 3079 3080 3081 3080 3079 3079 3078 3076 3075 3074 3076 3075 3071 3069 3067 3065 3065 3064 3062 3064 3060 3059 3057 3054 3052 3049 3047 3044
3033 3036 3038 3041 3044 3049 3052 3056 3058 3060 3063 3065 3067 3069 3071 3073 3075 3076 3077 3078 3078 3077 3077 3076 3075 3075 3077 3076 3076 3072 3069 3068 3066 3066 3067 3067 3066 3061 3060 3059 3056 3055 3053 3050 3048
3021 3023 3028 3028 3036 3042 3048 3050 3053 3056 3059 3061 3062 3064 3067 3069 3071 3072 3074 3075 3075 3075 3075 3075 3075 3073 3073 3073 3073 3072 3071 3068 3067 3067 3067 3068 3066 3063 3060 3058 3056 3056 3055 3054 3053
3009 3014 3020 3025 3032 3037 3040 3043 3048 3052 3055 3057 3059 3061 3063 3065 3068 3069 3070 3071 3072 3073 3073 3073 3073 3072 3072 3072 3072 3072 3071 3070 3068 3068 3068 3068 3067 3065 3063 3062 3060 3057 3055 3054 3052
3000 3006 3014 3019 3024 3029 3031 3038 3044 3048 3052 3054 3058 3059 3060 3063 3064 3066 3067 3067 3068 3069 3070 3070 3070 3071 3071 3070 3071 3073 3070 3070 3070 3069 3069 3069 3067 3065 3064 3063 3061 3058 3055 3053 3050